Date String (YYYY-MM-DD hh:mm:ss) UTC,Instrument flags,Ambient pressure (hPa),Sample flow (lpm),Bypass flow (lpm),Sample temperature (°C),Ambient temperature (°C),ASC tube jacket temperature (°C),LED temperature (°C),Box temperature (°C),Sample RH (%),Span deviation,Mass concentration (μg/m³),Mass concentration (μg/m³),Mass concentration (μg/m³)
DateTimeUTC,F1_M11,P_M11,Q1_M11,Q2_M11,T1_M11,T2_M11,T3_M11,T4_M11,T5_M11,U1_M11,ZSPAN_M11,X0_M11,X2_M11,X1_M11
2021-10-29 04:00:00,,0832.5,5.00,0.00,27.6,26.7,00.0,36.6,29.4,11.8,0000.0,0016.85,0005.75,0004.53
2021-10-29 04:01:00,,0832.5,5.00,0.00,27.6,26.6,00.0,36.6,29.4,11.8,0000.0,0017.68,0005.83,0004.58
2021-10-29 04:02:00,,0832.5,5.01,0.00,27.6,26.6,00.0,36.6,29.4,11.9,0000.0,0018.26,0005.89,0004.62
2021-10-29 04:03:00,,0832.5,4.99,0.00,27.6,26.6,00.0,36.6,29.4,11.8,0000.0,0018.50,0005.94,0004.66
2021-10-29 04:04:00,,0832.5,5.00,0.00,27.6,26.6,00.0,36.6,29.3,11.8,0000.0,0019.37,0006.02,0004.68
2021-10-29 04:05:00,,0832.5,5.00,0.00,27.5,26.6,00.0,36.6,29.4,11.8,0000.0,0019.18,0006.03,0004.68
2021-10-29 04:06:00,,0832.5,5.00,0.00,27.5,26.6,00.0,36.6,29.3,11.9,0000.0,0018.81,0006.09,0004.71
2021-10-29 04:07:00,,0832.5,5.00,0.00,27.5,26.6,00.0,36.6,29.3,11.9,0000.0,0019.80,0006.20,0004.80
2021-10-29 04:08:00,,0832.5,4.99,0.00,27.5,26.6,00.0,36.6,29.3,11.9,0000.0,0020.23,0006.26,0004.87
2021-10-29 04:09:00,,0832.6,4.99,0.00,27.5,26.5,00.0,36.6,29.3,11.8,0000.0,0019.81,0006.23,0004.86
2021-10-29 04:10:00,,0832.5,5.00,0.00,27.5,26.5,00.0,36.6,29.3,11.9,0000.0,0019.89,0006.17,0004.80
2021-10-29 04:11:00,,0832.5,5.00,0.00,27.5,26.5,00.0,36.6,29.3,11.9,0000.0,0020.38,0006.16,0004.72
2021-10-29 04:12:00,,0832.6,4.99,0.00,27.5,26.5,00.0,36.6,29.3,11.9,0000.0,0019.42,0006.07,0004.63
2021-10-29 04:13:00,,0832.6,4.99,0.00,27.5,26.5,00.0,36.6,29.3,11.9,0000.0,0018.35,0005.98,0004.55
2021-10-29 04:14:00,,0832.7,5.01,0.00,27.5,26.5,00.0,36.6,29.3,11.9,0000.0,0018.62,0005.90,0004.48
2021-10-29 04:15:00,,0832.6,5.01,0.00,27.5,26.6,00.0,36.5,29.3,11.9,0000.0,0018.45,0005.84,0004.44
2021-10-29 04:16:00,,0832.6,4.99,0.00,27.5,26.5,00.0,36.5,29.3,11.9,0000.0,0018.86,0005.79,0004.41
2021-10-29 04:17:00,,0832.6,5.01,0.00,27.5,26.5,00.0,36.5,29.3,11.9,0000.0,0019.35,0005.74,0004.37
2021-10-29 04:18:00,,0832.6,4.99,0.00,27.5,26.5,00.0,36.5,29.3,11.9,0000.0,0019.65,0005.69,0004.28
2021-10-29 04:19:00,,0832.6,5.01,0.00,27.5,26.5,00.0,36.5,29.3,11.9,0000.0,0019.20,0005.63,0004.19
2021-10-29 04:20:00,,0832.6,5.01,0.00,27.5,26.5,00.0,36.5,29.2,11.9,0000.0,0019.01,0005.61,0004.16
2021-10-29 04:21:00,,0832.6,5.00,0.00,27.5,26.5,00.0,36.5,29.2,11.9,0000.0,0019.87,0005.67,0004.15
2021-10-29 04:22:00,,0832.5,4.99,0.00,27.4,26.5,00.0,36.5,29.2,11.9,0000.0,0020.34,0005.65,0004.15
2021-10-29 04:23:00,,0832.5,5.00,0.00,27.4,26.5,00.0,36.5,29.2,11.9,0000.0,0020.89,0005.62,0004.13
2021-10-29 04:24:00,,0832.5,5.00,0.00,27.4,26.5,00.0,36.5,29.2,11.9,0000.0,0021.61,0005.57,0004.11
2021-10-29 04:25:00,,0832.5,5.01,0.00,27.4,26.5,00.0,36.5,29.2,11.9,0000.0,0021.84,0005.57,0004.08
2021-10-29 04:26:00,,0832.5,4.99,0.00,27.4,26.5,00.0,36.5,29.2,11.9,0000.0,0021.61,0005.55,0004.06
2021-10-29 04:27:00,,0832.5,5.00,0.00,27.4,26.5,00.0,36.5,29.2,11.9,0000.0,0021.09,0005.52,0004.02
2021-10-29 04:28:00,,0832.6,4.99,0.00,27.4,26.5,00.0,36.5,29.2,11.9,0000.0,0020.04,0005.47,0003.97
2021-10-29 04:29:00,,0832.6,5.00,0.00,27.4,26.5,00.0,36.5,29.3,11.9,0000.0,0019.50,0005.43,0003.94
2021-10-29 04:30:00,,0832.6,5.02,0.00,27.4,26.5,00.0,36.5,29.3,11.9,0000.0,0019.67,0005.50,0003.93
2021-10-29 04:31:00,,0832.6,4.98,0.00,27.4,26.5,00.0,36.5,29.2,11.9,0000.0,0020.01,0005.49,0003.94
2021-10-29 04:32:00,,0832.6,5.01,0.00,27.4,26.5,00.0,36.5,29.2,11.9,0000.0,0019.64,0005.48,0003.96
2021-10-29 04:33:00,,0832.5,5.00,0.00,27.4,26.4,00.0,36.5,29.2,11.9,0000.0,0018.94,0005.52,0003.97
2021-10-29 04:34:00,,0832.5,4.99,0.00,27.4,26.4,00.0,36.5,29.2,11.9,0000.0,0019.23,0005.51,0003.98
2021-10-29 04:35:00,,0832.5,5.01,0.00,27.4,26.4,00.0,36.5,29.2,11.9,0000.0,0019.24,0005.52,0004.00
2021-10-29 04:36:00,,0832.5,5.00,0.00,27.4,26.4,00.0,36.4,29.2,11.9,0000.0,0018.33,0005.52,0004.02
2021-10-29 04:37:00,,0832.5,5.01,0.00,27.4,26.4,00.0,36.4,29.2,11.9,0000.0,0019.03,0005.54,0004.02
2021-10-29 04:38:00,,0832.5,4.99,0.00,27.4,26.4,00.0,36.4,29.2,11.9,0000.0,0019.52,0005.55,0004.04
2021-10-29 04:39:00,,0832.4,5.00,0.00,27.4,26.4,00.0,36.4,29.1,11.9,0000.0,0019.56,0005.61,0004.09
2021-10-29 04:40:00,,0832.5,5.00,0.00,27.4,26.4,00.0,36.4,29.1,11.9,0000.0,0018.93,0005.62,0004.13
2021-10-29 04:41:00,,0832.4,5.00,0.00,27.4,26.4,00.0,36.4,29.1,12.0,0000.0,0018.93,0005.59,0004.16
2021-10-29 04:42:00,,0832.4,4.98,0.00,27.3,26.4,00.0,36.4,29.1,12.0,0000.0,0019.30,0005.64,0004.17
2021-10-29 04:43:00,,0832.3,5.01,0.00,27.3,26.4,00.0,36.4,29.2,12.0,0000.0,0019.25,0005.65,0004.18
2021-10-29 04:44:00,,0832.3,4.99,0.00,27.3,26.4,00.0,36.4,29.2,12.0,0000.0,0019.62,0005.63,0004.21
2021-10-29 04:45:00,,0832.3,5.00,0.00,27.3,26.4,00.0,36.4,29.2,12.0,0000.0,0019.76,0005.69,0004.24
2021-10-29 04:46:00,,0832.3,5.01,0.00,27.3,26.4,00.0,36.4,29.1,12.0,0000.0,0018.25,0005.67,0004.26
2021-10-29 04:47:00,,0832.4,5.00,0.00,27.3,26.3,00.0,36.4,29.1,12.0,0000.0,0018.11,0005.64,0004.28
2021-10-29 04:48:00,,0832.3,5.01,0.00,27.3,26.3,00.0,36.4,29.1,12.0,0000.0,0017.57,0005.68,0004.30
2021-10-29 04:49:00,,0832.4,5.00,0.00,27.3,26.3,00.0,36.4,29.1,12.0,0000.0,0017.31,0005.75,0004.34
2021-10-29 04:50:00,,0832.3,4.99,0.00,27.3,26.3,00.0,36.4,29.1,12.0,0000.0,0019.66,0005.76,0004.35
2021-10-29 04:51:00,,0832.3,5.01,0.00,27.3,26.3,00.0,36.4,29.1,12.0,0000.0,0020.46,0005.76,0004.36
2021-10-29 04:52:00,,0832.2,5.00,0.00,27.3,26.3,00.0,36.4,29.0,12.1,0000.0,0020.69,0005.72,0004.32
2021-10-29 04:53:00,,0832.2,5.01,0.00,27.3,26.3,00.0,36.4,29.1,12.1,0000.0,0019.69,0005.60,0004.25
2021-10-29 04:54:00,,0832.2,5.00,0.00,27.3,26.3,00.0,36.3,29.0,12.1,0000.0,0019.37,0005.50,0004.19
2021-10-29 04:55:00,,0832.2,5.00,0.00,27.2,26.3,00.0,36.3,29.0,12.3,0000.0,0017.83,0005.34,0004.10
2021-10-29 04:56:00,,0832.3,4.99,0.00,27.2,26.3,00.0,36.3,29.0,12.4,0000.0,0016.20,0005.03,0003.93
2021-10-29 04:57:00,,0832.3,5.00,0.00,27.2,26.3,00.0,36.3,29.0,12.4,0000.0,0015.83,0004.81,0003.76
2021-10-29 04:58:00,,0832.3,5.00,0.00,27.2,26.3,00.0,36.3,29.0,12.3,0000.0,0016.02,0004.67,0003.63
2021-10-29 04:59:00,,0832.4,5.01,0.00,27.2,26.3,00.0,36.3,29.0,12.1,0000.0,0015.93,0004.53,0003.56
